Wind_Speed
24 23 22 21 19 18 16 16 14 14 13 13 14 13 10 10 9 7 9 10 10 11 13 13 15 18 20 22 23 24 25 26 27 29 30 30 30 30 31 32 34 35 36 37
25 26 23 22 21 19 17 18 15 15 14 13 13 13 12 13 10 8 9 11 13 13 15 16 18 19 22 24 25 27 29 30 31 32 33 33 32 33 35 36 38 40 40 40
25 26 23 22 22 20 19 18 15 16 16 15 13 15 14 12 12 11 13 13 13 15 17 19 20 21 24 26 28 29 31 34 35 35 35 35 34 36 38 40 41 42 44 44
25 25 20 21 22 21 20 19 17 17 15 18 16 12 15 11 13 15 15 15 15 16 19 21 22 24 27 28 30 30 32 35 37 37 37 37 38 39 41 43 45 46 46 46
23 26 24 23 22 22 20 21 19 17 15 18 15 12 15 15 15 15 16 17 20 21 23 25 25 28 30 30 30 31 34 39 40 40 40 42 43 44 46 48 50 49 50 49
21 26 27 25 22 22 21 21 22 20 18 18 15 15 15 19 18 17 18 19 22 24 25 26 28 29 31 32 32 33 36 41 45 46 47 48 48 49 50 50 51 51 52 53
17 24 24 23 25 23 23 21 21 23 21 20 17 17 18 15 18 20 21 22 24 26 27 29 29 31 33 35 37 38 41 44 47 50 51 52 54 56 57 56 53 54 54 54
17 20 22 23 24 24 25 24 22 23 21 21 20 19 20 17 19 23 25 26 25 26 27 28 32 34 35 39 43 42 44 48 50 52 54 56 56 58 59 59 58 57 55 54
22 20 20 21 26 27 25 25 24 23 22 24 23 20 21 22 21 23 24 25 26 29 30 32 34 38 40 42 44 47 47 50 53 54 57 58 59 59 58 58 58 56 55 55
22 26 20 18 24 25 27 26 27 26 27 24 24 22 20 22 25 28 29 29 30 32 34 35 37 40 43 46 47 49 50 52 54 54 57 58 58 57 56 55 54 56 55 58
27 25 25 24 24 24 26 27 28 30 29 27 26 23 22 24 29 32 35 36 36 38 39 40 42 43 43 45 47 49 50 52 53 55 54 56 55 55 54 54 56 56 62 64
28 31 29 27 27 27 26 26 27 30 29 29 28 25 24 28 33 37 37 37 37 38 40 43 47 49 45 46 49 50 49 48 49 51 53 52 51 53 56 56 59 63 62 61
28 30 31 33 31 30 28 26 27 29 30 28 31 26 29 33 38 39 37 39 42 45 46 48 45 45 42 42 44 47 47 48 48 49 48 51 53 54 58 62 60 62 64 64
27 27 32 30 33 31 32 29 30 32 30 32 33 35 32 40 40 39 43 43 50 50 44 45 44 46 48 48 39 36 39 41 43 45 47 50 55 57 57 61 63 62 61 63
26 25 28 34 33 29 30 30 32 33 35 37 34 37 32 41 44 45 50 45 41 41 41 40 39 40 41 40 35 36 37 38 44 48 50 49 51 55 60 61 59 61 63 67
20 24 27 29 30 32 33 36 40 34 34 38 44 47 50 45 38 36 39 35 33 35 37 40 41 41 40 35 36 36 39 36 38 42 46 50 55 57 55 57 60 65 70 74
15 15 19 21 23 22 17 22 25 24 27 29 28 29 30 32 34 35 35 34 36 37 39 40 40 37 33 33 34 33 35 39 42 47 50 52 52 53 57 62 67 72 77 82
15 14 15 14 15 13 14 17 21 22 24 24 25 26 28 28 28 29 32 35 37 38 38 38 36 33 32 34 33 38 38 42 45 47 47 48 53 57 63 68 74 80 85 91
19 18 15 12 10 11 13 15 17 18 20 20 21 20 21 24 26 31 35 37 36 36 37 35 34 33 32 35 38 37 41 43 43 43 47 52 58 64 69 75 82 87 92 97
23 20 16 12 13 13 15 15 15 15 15 15 18 20 23 26 30 33 35 34 35 38 37 35 34 34 36 36 37 38 39 38 41 46 52 58 64 70 76 83 88 93 97 102
25 21 16 14 13 11 14 12 12 13 14 17 19 22 24 27 30 32 34 35 37 38 37 36 33 32 33 35 35 35 34 39 46 52 59 65 70 76 82 88 93 98 103 109
25 22 17 15 14 13 12 13 14 14 17 19 20 22 24 29 31 31 33 35 36 35 33 32 30 30 31 30 29 32 38 45 52 59 65 70 75 82 88 92 97 103 110 116
26 21 18 16 15 14 12 13 14 17 19 19 21 24 29 30 31 33 34 34 34 33 31 28 26 26 26 26 30 36 43 50 58 64 69 74 81 86 92 97 103 111 116 108
28 23 20 18 18 14 12 13 17 18 17 20 22 27 29 31 32 32 33 34 32 29 26 24 23 23 24 29 34 41 48 55 62 68 75 79 83 90 96 103 110 114 104 85
30 24 21 21 20 13 15 16 17 17 19 22 25 27 29 31 32 33 34 32 28 26 24 22 21 23 28 33 39 46 53 60 67 74 78 81 88 93 101 109 111 99 84 70
28 26 23 21 19 16 16 19 18 19 22 23 26 26 29 33 34 34 32 28 25 23 22 21 23 27 32 38 45 52 59 66 72 76 80 86 91 98 105 109 97 80 66 55
Wind_Direction
238 244 244 248 247 235 239 255 263 270 270 267 231 225 228 233 233 248 271 287 304 303 301 303 303 308 310 310 310 309 308 307 307 307 308 308 308 307 307 308 307 305 304 305
235 242 243 243 243 251 256 257 260 266 268 263 232 235 238 244 248 259 271 282 292 301 302 303 305 307 307 307 306 305 303 302 302 304 305 305 307 308 308 308 308 307 307 304
239 242 246 246 241 252 260 260 257 261 261 253 231 245 244 255 269 270 268 280 291 301 306 305 302 299 301 301 299 298 298 299 301 302 302 304 305 306 306 307 307 305 304 305
236 239 238 248 249 249 256 260 254 253 257 239 238 251 265 263 267 267 274 282 291 295 298 299 294 293 297 296 296 296 297 297 297 299 301 301 303 303 304 305 305 303 302 303
231 234 233 242 251 253 254 259 257 254 259 235 240 252 265 268 260 264 271 278 288 291 292 293 293 293 293 293 294 294 296 296 297 300 302 303 302 303 305 305 304 302 302 304
235 231 232 241 248 256 262 262 263 265 266 239 241 252 253 265 269 271 272 276 282 287 289 287 289 291 292 295 296 296 298 299 301 303 303 303 300 301 304 304 304 304 305 305
245 238 234 236 247 254 263 264 262 260 261 245 236 249 252 251 263 266 270 275 282 284 286 292 294 294 296 297 297 299 299 298 300 303 304 304 303 303 306 306 306 307 306 304
236 237 238 236 242 250 256 261 262 259 256 241 241 237 255 257 258 266 276 282 282 283 286 288 290 292 293 294 296 297 297 298 300 302 302 301 301 305 307 307 308 306 304 303
233 242 242 241 242 246 254 261 262 264 258 250 240 240 253 267 272 274 273 272 276 278 280 284 288 290 291 293 295 297 298 297 297 298 299 301 303 305 306 305 303 303 305 307
234 237 240 240 245 246 252 256 260 266 266 260 253 252 256 269 276 279 281 282 280 281 286 289 289 289 293 294 294 294 294 294 295 299 299 301 303 304 304 303 304 306 308 310
248 240 237 239 242 247 251 254 256 261 264 269 269 266 263 265 269 275 278 281 287 292 294 294 293 291 289 286 286 289 291 294 297 297 301 301 302 301 303 305 307 308 309 308
258 244 242 240 238 243 246 251 255 259 263 263 266 266 271 274 273 272 278 286 291 293 293 292 291 287 284 287 290 293 294 295 298 301 300 300 301 303 305 308 307 308 308 309
256 246 240 239 241 242 245 249 251 254 258 264 268 280 274 272 273 280 290 290 288 290 294 296 291 289 290 292 293 292 291 296 298 297 297 297 304 309 308 307 308 310 311 311
258 246 241 242 244 245 248 251 258 261 264 273 278 276 279 278 282 287 287 290 294 298 298 297 293 291 290 293 295 298 295 293 293 297 302 306 307 306 308 311 312 313 313 313
259 245 248 245 246 250 251 255 257 261 266 271 273 274 277 282 290 288 291 295 299 297 296 298 299 300 298 298 296 294 294 296 299 302 304 305 307 310 312 313 314 313 313 314
258 243 247 245 246 250 252 256 259 258 263 267 271 277 281 285 289 292 294 298 302 302 302 303 303 303 304 305 307 302 302 307 310 309 311 311 312 313 313 314 315 316 315 314
248 256 255 260 262 259 256 258 265 267 268 271 275 282 288 292 298 301 305 307 307 309 309 308 307 308 307 308 308 307 307 310 315 315 314 314 314 314 316 317 316 315 314 314
242 252 255 255 258 264 264 265 270 274 277 284 289 294 296 299 304 309 309 310 309 309 308 309 312 311 309 307 305 308 311 316 317 317 316 316 318 319 318 317 316 316 316 315
235 241 246 248 261 276 280 273 273 278 283 288 293 299 304 308 309 310 309 307 308 310 312 314 312 308 306 308 310 313 315 318 318 318 319 321 320 318 318 318 317 317 316 314
230 230 232 247 266 275 283 289 291 289 289 298 302 304 305 309 311 310 310 309 310 312 312 309 306 306 308 312 315 316 318 319 320 322 322 320 320 320 319 319 318 316 315 313
225 225 233 247 262 278 283 292 293 295 299 302 303 305 308 309 310 311 311 310 310 311 311 308 306 309 312 315 317 319 320 323 325 322 321 321 320 320 320 319 318 317 315 313
224 226 233 243 259 273 285 291 298 305 306 303 306 310 313 314 313 313 314 313 313 312 311 309 310 313 316 318 320 322 326 325 324 323 321 320 320 321 321 319 318 317 315 312
227 233 236 246 257 267 283 293 305 305 303 311 315 320 319 315 314 317 317 314 313 314 314 314 316 316 317 320 324 325 325 325 323 322 322 322 324 323 322 321 319 318 315 319
227 234 241 243 252 266 286 293 298 300 309 316 322 323 319 318 318 317 317 316 316 316 316 315 315 316 319 324 324 323 324 323 323 324 325 326 325 324 323 323 321 317 321 323
224 231 238 244 250 272 281 291 294 304 311 318 324 321 320 320 319 319 318 315 314 313 311 311 313 318 322 322 323 324 322 323 325 326 327 327 327 326 326 324 321 325 326 326
223 232 240 244 253 270 279 291 297 304 309 317 322 320 319 320 320 318 314 313 313 308 307 310 315 319 321 324 323 323 324 326 327 328 328 329 328 328 327 324 327 328 328 329
Height
5862 5863 5864 5866 5868 5869 5868 5869 5870 5871 5871 5872 5874 5874 5876 5876 5876 5877 5877 5878 5879 5878 5877 5875 5874 5873 5871 5869 5866 5863 5860 5857 5855 5853 5851 5849 5846 5842 5838 5834 5831 5827 5823 5819
5859 5859 5863 5863 5864 5866 5866 5866 5867 5868 5868 5870 5873 5874 5874 5874 5874 5874 5874 5875 5875 5875 5874 5872 5871 5869 5867 5865 5862 5859 5855 5852 5850 5848 5846 5843 5840 5835 5831 5826 5822 5818 5814 5810
5853 5856 5859 5860 5861 5863 5864 5863 5864 5865 5865 5867 5870 5872 5873 5873 5874 5872 5872 5872 5872 5871 5870 5869 5868 5865 5863 5860 5857 5854 5851 5847 5845 5843 5841 5838 5834 5829 5824 5819 5814 5810 5806 5801
5848 5851 5856 5857 5858 5861 5861 5861 5861 5862 5863 5864 5867 5870 5870 5870 5869 5870 5869 5868 5868 5867 5866 5865 5863 5861 5859 5856 5853 5849 5845 5841 5839 5836 5834 5831 5827 5822 5816 5811 5806 5802 5797 5791
5845 5847 5850 5853 5855 5857 5858 5859 5858 5858 5860 5862 5864 5866 5865 5866 5865 5865 5865 5865 5864 5862 5861 5860 5857 5855 5852 5850 5847 5844 5840 5835 5830 5827 5824 5821 5817 5812 5807 5802 5797 5792 5787 5781
5839 5842 5845 5848 5849 5851 5853 5855 5855 5855 5857 5859 5861 5862 5860 5862 5862 5862 5860 5859 5857 5856 5855 5854 5851 5849 5845 5843 5841 5838 5833 5827 5822 5819 5816 5812 5807 5802 5797 5790 5785 5780 5775 5770
5835 5838 5840 5842 5844 5846 5847 5849 5851 5852 5853 5855 5857 5858 5857 5858 5857 5857 5856 5855 5853 5851 5849 5846 5844 5842 5839 5835 5832 5830 5825 5820 5814 5809 5804 5799 5794 5790 5786 5781 5774 5769 5763 5757
5830 5833 5835 5837 5839 5841 5841 5843 5846 5846 5848 5850 5851 5854 5853 5853 5853 5852 5850 5848 5847 5845 5843 5841 5838 5835 5832 5828 5824 5822 5817 5811 5805 5799 5793 5788 5782 5778 5773 5767 5761 5756 5750 5745
5825 5827 5828 5831 5833 5836 5837 5839 5840 5840 5843 5843 5846 5849 5848 5846 5846 5845 5844 5843 5841 5839 5837 5835 5832 5828 5824 5821 5816 5810 5807 5801 5795 5789 5784 5779 5774 5768 5762 5757 5751 5746 5740 5735
5819 5821 5823 5825 5828 5829 5830 5833 5834 5834 5834 5837 5839 5841 5843 5842 5839 5836 5835 5834 5834 5832 5831 5829 5825 5821 5816 5811 5806 5801 5796 5791 5786 5781 5775 5770 5764 5758 5752 5746 5741 5735 5729 5722
5812 5815 5818 5819 5821 5823 5824 5826 5827 5828 5828 5829 5831 5836 5837 5836 5833 5830 5827 5826 5826 5825 5823 5820 5816 5811 5806 5800 5795 5790 5786 5781 5777 5771 5765 5760 5753 5747 5741 5735 5729 5723 5715 5708
5805 5806 5810 5812 5814 5815 5817 5820 5821 5821 5823 5822 5823 5828 5829 5826 5823 5820 5820 5821 5819 5816 5813 5808 5804 5800 5794 5791 5787 5782 5777 5772 5766 5760 5754 5748 5742 5735 5730 5723 5716 5708 5700 5691
5798 5799 5802 5805 5808 5809 5810 5813 5814 5814 5814 5817 5815 5822 5820 5817 5813 5812 5814 5811 5808 5805 5801 5797 5793 5789 5785 5781 5777 5772 5766 5760 5755 5749 5743 5737 5731 5725 5718 5710 5701 5693 5685 5676
5790 5792 5795 5798 5800 5803 5804 5806 5807 5808 5809 5809 5810 5809 5812 5805 5804 5806 5802 5800 5796 5793 5788 5785 5781 5778 5774 5769 5763 5759 5755 5750 5744 5738 5732 5726 5719 5712 5704 5696 5687 5678 5669 5660
5784 5787 5788 5790 5794 5796 5797 5799 5800 5801 5800 5799 5803 5800 5800 5796 5796 5793 5792 5788 5784 5781 5778 5774 5770 5766 5762 5757 5753 5749 5744 5740 5734 5728 5721 5714 5707 5699 5691 5682 5673 5664 5655 5645
5780 5782 5783 5785 5787 5789 5792 5794 5794 5793 5791 5791 5790 5792 5789 5788 5786 5783 5781 5778 5774 5771 5767 5763 5759 5754 5751 5747 5743 5739 5735 5729 5723 5716 5709 5702 5695 5686 5678 5669 5659 5650 5640 5631
5777 5778 5779 5780 5780 5781 5784 5783 5783 5783 5783 5782 5781 5781 5782 5779 5777 5774 5771 5768 5764 5760 5756 5752 5748 5744 5741 5738 5734 5729 5724 5718 5712 5705 5698 5691 5683 5675 5665 5656 5647 5637 5627 5616
5772 5773 5774 5776 5777 5777 5779 5778 5777 5777 5776 5776 5775 5775 5774 5772 5770 5766 5763 5759 5755 5750 5746 5742 5738 5735 5732 5729 5724 5719 5713 5707 5701 5695 5688 5680 5672 5663 5654 5644 5634 5622 5609 5595
5767 5768 5770 5771 5773 5774 5774 5774 5773 5773 5771 5771 5771 5769 5767 5765 5762 5760 5756 5751 5747 5743 5738 5734 5730 5727 5723 5719 5714 5709 5703 5697 5692 5685 5678 5670 5662 5653 5642 5631 5618 5604 5590 5575
5762 5763 5767 5768 5769 5769 5769 5768 5768 5768 5767 5766 5765 5763 5761 5759 5756 5752 5747 5743 5739 5734 5730 5725 5722 5719 5715 5709 5704 5699 5694 5689 5683 5676 5668 5660 5651 5640 5628 5614 5600 5585 5568 5551
5756 5758 5761 5763 5765 5766 5764 5765 5764 5764 5766 5762 5760 5758 5756 5753 5749 5745 5740 5736 5731 5726 5722 5718 5713 5709 5705 5700 5696 5691 5687 5681 5674 5667 5658 5648 5637 5625 5611 5596 5580 5563 5545 5525
5751 5754 5756 5758 5760 5761 5760 5761 5760 5760 5758 5756 5755 5753 5750 5746 5742 5737 5732 5727 5722 5717 5713 5708 5704 5701 5697 5692 5688 5684 5679 5673 5665 5657 5647 5636 5623 5608 5593 5577 5559 5539 5518 5495
5747 5750 5752 5754 5755 5755 5756 5756 5755 5754 5752 5750 5749 5746 5742 5738 5734 5729 5724 5719 5714 5710 5705 5701 5697 5693 5690 5686 5682 5677 5671 5664 5655 5646 5634 5621 5606 5590 5574 5556 5536 5513 5489 5468
5741 5744 5747 5748 5749 5750 5751 5751 5749 5748 5746 5745 5742 5740 5736 5732 5727 5721 5716 5711 5707 5702 5699 5695 5691 5688 5684 5680 5675 5670 5663 5655 5645 5633 5620 5606 5590 5573 5554 5533 5510 5487 5465 5447
5735 5739 5741 5743 5743 5746 5746 5745 5744 5742 5740 5738 5736 5733 5730 5725 5720 5714 5709 5704 5700 5696 5693 5689 5686 5682 5678 5674 5668 5662 5653 5644 5632 5619 5605 5590 5573 5554 5534 5511 5486 5462 5444 5430
5730 5733 5736 5737 5739 5740 5741 5740 5738 5736 5734 5732 5730 5727 5723 5718 5713 5707 5702 5698 5694 5690 5688 5684 5680 5677 5672 5667 5660 5652 5642 5631 5619 5605 5590 5573 5556 5536 5515 5491 5466 5444 5430 5420